| time (UTC) | temp F | wind direction | speed MPH | gust MPH | rain 1hr in | rain 24hr in | rain mn in | humidity % | barometer mb |
| 20260507134536 | 55 | 111 | 11.0 | 16.0 | 0.00 | 0.00 | 0.00 | 68 | 1022.2 |
| 20260507134031 | 54 | 103 | 13.0 | 15.0 | 0.00 | 0.00 | 0.00 | 69 | 1022.0 |
| 20260507133528 | 55 | 88 | 8.0 | 13.0 | 0.00 | 0.00 | 0.00 | 69 | 1022.1 |
| 20260507133026 | 54 | 75 | 14.0 | 19.0 | 0.00 | 0.00 | 0.00 | 71 | 1022.0 |
| 20260507132522 | 54 | 85 | 13.0 | 19.0 | 0.00 | 0.00 | 0.00 | 71 | 1022.1 |
| 20260507132019 | 53 | 98 | 15.0 | 18.0 | 0.00 | 0.00 | 0.00 | 72 | 1021.9 |
| 20260507131516 | 53 | 95 | 15.0 | 19.0 | 0.00 | 0.00 | 0.00 | 72 | 1021.8 |
| 20260507131013 | 54 | 119 | 10.0 | 17.0 | 0.00 | 0.00 | 0.00 | 72 | 1021.6 |
| 20260507130510 | 53 | 88 | 9.0 | 17.0 | 0.00 | 0.00 | 0.00 | 73 | 1021.9 |
| 20260507130008 | 53 | 88 | 9.0 | 17.0 | 0.00 | 0.00 | 0.00 | 74 | 1021.4 |
| 20260507125506 | 53 | 71 | 11.0 | 18.0 | 0.00 | 0.00 | 0.00 | 74 | 1022.0 |
| 20260507125003 | 53 | 92 | 6.0 | 14.0 | 0.00 | 0.00 | 0.00 | 75 | 1021.5 |
| 20260507124459 | 53 | 101 | 7.0 | 14.0 | 0.00 | 0.00 | 0.00 | 75 | 1021.6 |
| 20260507123957 | 52 | 91 | 11.0 | 15.0 | 0.00 | 0.00 | 0.00 | 75 | 1021.5 |
| 20260507123455 | 52 | 78 | 9.0 | 16.0 | 0.00 | 0.00 | 0.00 | 76 | 1021.3 |
| 20260507122951 | 52 | 87 | 7.0 | 13.0 | 0.00 | 0.00 | 0.00 | 77 | 1021.3 |
| 20260507122447 | 52 | 77 | 9.0 | 17.0 | 0.00 | 0.00 | 0.00 | 77 | 1021.3 |
| 20260507121943 | 52 | 83 | 9.0 | 13.0 | 0.00 | 0.00 | 0.00 | 78 | 1021.0 |
| 20260507121438 | 52 | 71 | 6.0 | 17.0 | 0.00 | 0.00 | 0.00 | 78 | 1021.0 |
| 20260507120935 | 52 | 65 | 12.0 | 17.0 | 0.00 | 0.00 | 0.00 | 78 | 1021.2 |
| 20260507120431 | 52 | 66 | 8.0 | 12.0 | 0.00 | 0.00 | 0.00 | 78 | 1020.9 |
| 20260507115928 | 52 | 68 | 10.0 | 16.0 | 0.00 | 0.00 | 0.00 | 78 | 1021.0 |
| 20260507115424 | 52 | 86 | 7.0 | 12.0 | 0.00 | 0.00 | 0.00 | 77 | 1020.9 |
| 20260507114920 | 52 | 71 | 15.0 | 18.0 | 0.00 | 0.00 | 0.00 | 77 | 1020.9 |
| 20260507114417 | 52 | 75 | 8.0 | 15.0 | 0.00 | 0.00 | 0.00 | 77 | 1020.9 |
| 20260507113914 | 52 | 61 | 12.0 | 17.0 | 0.00 | 0.00 | 0.00 | 76 | 1021.0 |
| 20260507113411 | 52 | 71 | 9.0 | 12.0 | 0.00 | 0.00 | 0.00 | 76 | 1020.5 |
| 20260507112908 | 53 | 86 | 13.0 | 16.0 | 0.00 | 0.00 | 0.00 | 75 | 1021.0 |
| 20260507112406 | 53 | 86 | 14.0 | 15.0 | 0.00 | 0.00 | 0.00 | 75 | 1020.7 |
| 20260507111904 | 53 | 83 | 16.0 | 17.0 | 0.00 | 0.00 | 0.00 | 75 | 1020.8 |
| 20260507111400 | 53 | 64 | 12.0 | 14.0 | 0.00 | 0.00 | 0.00 | 74 | 1020.8 |
| 20260507110856 | 53 | 82 | 14.0 | 16.0 | 0.00 | 0.00 | 0.00 | 74 | 1020.9 |
| 20260507110352 | 53 | 82 | 14.0 | 17.0 | 0.00 | 0.00 | 0.00 | 73 | 1021.2 |
| 20260507105849 | 53 | 91 | 7.0 | 13.0 | 0.00 | 0.00 | 0.00 | 73 | 1020.9 |
| 20260507105346 | 53 | 81 | 8.0 | 13.0 | 0.00 | 0.00 | 0.00 | 72 | 1021.0 |
| 20260507104842 | 53 | 87 | 9.0 | 14.0 | 0.00 | 0.00 | 0.00 | 72 | 1021.0 |
| 20260507104339 | 53 | 70 | 9.0 | 14.0 | 0.00 | 0.00 | 0.00 | 71 | 1021.2 |
| 20260507103835 | 53 | 76 | 6.0 | 11.0 | 0.00 | 0.00 | 0.00 | 71 | 1021.2 |
| 20260507103332 | 54 | 74 | 6.0 | 13.0 | 0.00 | 0.00 | 0.00 | 71 | 1021.2 |
| 20260507102828 | 54 | 74 | 15.0 | 17.0 | 0.00 | 0.00 | 0.00 | 70 | 1020.9 |
| 20260507102325 | 54 | 84 | 9.0 | 13.0 | 0.00 | 0.00 | 0.00 | 70 | 1021.0 |
| 20260507101821 | 54 | 88 | 10.0 | 13.0 | 0.00 | 0.00 | 0.00 | 69 | 1021.0 |
| 20260507101316 | 54 | 87 | 10.0 | 14.0 | 0.00 | 0.00 | 0.00 | 69 | 1020.8 |
| 20260507100813 | 55 | 94 | 10.0 | 15.0 | 0.00 | 0.00 | 0.00 | 68 | 1020.9 |
| 20260507100311 | 55 | 63 | 9.0 | 17.0 | 0.00 | 0.00 | 0.00 | 68 | 1020.5 |
| 20260507095809 | 55 | 69 | 9.0 | 16.0 | 0.00 | 0.00 | 0.00 | 67 | 1020.5 |
| 20260507095306 | 55 | 70 | 12.0 | 16.0 | 0.00 | 0.00 | 0.00 | 67 | 1020.6 |
| 20260507094802 | 55 | 88 | 10.0 | 17.0 | 0.00 | 0.00 | 0.00 | 67 | 1020.5 |
| 20260507094259 | 55 | 76 | 11.0 | 16.0 | 0.00 | 0.00 | 0.00 | 67 | 1020.6 |
| 20260507093756 | 55 | 78 | 12.0 | 16.0 | 0.00 | 0.00 | 0.00 | 66 | 1020.6 |
| 20260507093255 | 55 | 94 | 9.0 | 18.0 | 0.00 | 0.00 | 0.00 | 66 | 1020.4 |
| 20260507092752 | 56 | 72 | 10.0 | 13.0 | 0.00 | 0.00 | 0.00 | 66 | 1020.4 |
| 20260507092248 | 56 | 73 | 10.0 | 12.0 | 0.00 | 0.00 | 0.00 | 66 | 1020.2 |
| 20260507091745 | 56 | 60 | 12.0 | 13.0 | 0.00 | 0.00 | 0.00 | 66 | 1020.4 |
| 20260507091241 | 56 | 82 | 11.0 | 15.0 | 0.00 | 0.00 | 0.00 | 65 | 1020.2 |
| 20260507090736 | 56 | 84 | 11.0 | 15.0 | 0.00 | 0.00 | 0.00 | 65 | 1020.5 |
| 20260507090233 | 56 | 83 | 9.0 | 13.0 | 0.00 | 0.00 | 0.00 | 65 | 1020.3 |
| 20260507085730 | 56 | 78 | 9.0 | 14.0 | 0.00 | 0.00 | 0.00 | 65 | 1020.1 |
| 20260507085227 | 57 | 93 | 6.0 | 12.0 | 0.00 | 0.00 | 0.00 | 65 | 1020.0 |
| 20260507084724 | 57 | 93 | 10.0 | 16.0 | 0.00 | 0.00 | 0.00 | 64 | 1020.1 |
| 20260507084221 | 57 | 86 | 9.0 | 16.0 | 0.00 | 0.00 | 0.00 | 64 | 1020.2 |
| 20260507083718 | 58 | 89 | 11.0 | 17.0 | 0.00 | 0.00 | 0.00 | 64 | 1019.8 |
| 20260507083215 | 58 | 73 | 14.0 | 15.0 | 0.00 | 0.00 | 0.00 | 64 | 1019.7 |
| 20260507082711 | 58 | 75 | 17.0 | 18.0 | 0.00 | 0.00 | 0.00 | 64 | 1019.8 |
| 20260507082207 | 58 | 87 | 11.0 | 15.0 | 0.00 | 0.00 | 0.00 | 64 | 1019.5 |
| 20260507081704 | 58 | 80 | 9.0 | 11.0 | 0.00 | 0.00 | 0.00 | 64 | 1019.7 |
| 20260507081200 | 58 | 79 | 6.0 | 11.0 | 0.00 | 0.00 | 0.00 | 65 | 1019.6 |
| 20260507080657 | 58 | 67 | 8.0 | 11.0 | 0.00 | 0.00 | 0.00 | 65 | 1019.4 |
| 20260507080153 | 58 | 93 | 5.0 | 9.0 | 0.00 | 0.00 | 0.00 | 65 | 1019.3 |
| 20260507075648 | 58 | 92 | 6.0 | 12.0 | 0.00 | 0.00 | 0.00 | 65 | 1019.5 |
| 20260507075144 | 58 | 89 | 11.0 | 15.0 | 0.00 | 0.00 | 0.00 | 65 | 1019.4 |
| 20260507074641 | 58 | 94 | 14.0 | 15.0 | 0.00 | 0.00 | 0.00 | 65 | 1019.4 |
| 20260507074140 | 58 | 104 | 13.0 | 19.0 | 0.00 | 0.00 | 0.00 | 65 | 1019.4 |
| 20260507073636 | 58 | 99 | 8.0 | 13.0 | 0.00 | 0.00 | 0.00 | 65 | 1019.4 |
| 20260507073132 | 58 | 77 | 13.0 | 14.0 | 0.00 | 0.00 | 0.00 | 65 | 1019.5 |
| 20260507072630 | 58 | 91 | 4.0 | 13.0 | 0.00 | 0.00 | 0.00 | 65 | 1019.5 |
| 20260507072127 | 59 | 92 | 10.0 | 16.0 | 0.00 | 0.00 | 0.00 | 65 | 1019.1 |
| 20260507071624 | 59 | 85 | 9.0 | 14.0 | 0.00 | 0.00 | 0.00 | 64 | 1019.2 |
| 20260507071120 | 59 | 89 | 11.0 | 13.0 | 0.00 | 0.00 | 0.00 | 64 | 1019.0 |
| 20260507070618 | 59 | 93 | 13.0 | 14.0 | 0.00 | 0.00 | 0.00 | 63 | 1019.0 |
| 20260507070115 | 59 | 84 | 7.0 | 13.0 | 0.00 | 0.00 | 0.00 | 63 | 1019.1 |
| 20260507065611 | 59 | 93 | 10.0 | 10.0 | 0.00 | 0.00 | 0.00 | 62 | 1019.0 |
| 20260507065108 | 59 | 72 | 7.0 | 12.0 | 0.00 | 0.00 | 0.00 | 62 | 1018.7 |
| 20260507064606 | 59 | 101 | 5.0 | 8.0 | 0.00 | 0.00 | 0.00 | 62 | 1018.7 |
| 20260507064104 | 59 | 110 | 6.0 | 8.0 | 0.00 | 0.00 | 0.00 | 62 | 1018.4 |
| 20260507063601 | 60 | 115 | 5.0 | 8.0 | 0.00 | 0.00 | 0.00 | 61 | 1018.5 |
| 20260507063059 | 60 | 98 | 5.0 | 9.0 | 0.00 | 0.00 | 0.00 | 61 | 1018.3 |
| 20260507062555 | 60 | 88 | 7.0 | 7.0 | 0.00 | 0.00 | 0.00 | 61 | 1018.4 |
| 20260507062053 | 61 | 97 | 6.0 | 6.0 | 0.00 | 0.00 | 0.00 | 61 | 1018.0 |
| 20260507061550 | 61 | 140 | 4.0 | 11.0 | 0.00 | 0.00 | 0.00 | 60 | 1018.1 |
| 20260507061048 | 61 | 122 | 6.0 | 9.0 | 0.00 | 0.00 | 0.00 | 61 | 1018.1 |
| 20260507060546 | 61 | 124 | 5.0 | 8.0 | 0.00 | 0.00 | 0.00 | 60 | 1018.1 |
| 20260507060042 | 62 | 117 | 5.0 | 6.0 | 0.00 | 0.00 | 0.00 | 59 | 1018.3 |
| 20260507055542 | 62 | 118 | 7.0 | 10.0 | 0.00 | 0.00 | 0.00 | 59 | 1017.9 |
| 20260507055039 | 62 | 124 | 6.0 | 11.0 | 0.00 | 0.00 | 0.00 | 58 | 1018.0 |
| 20260507054535 | 62 | 136 | 9.0 | 13.0 | 0.00 | 0.00 | 0.00 | 58 | 1017.9 |
| 20260507054032 | 62 | 121 | 8.0 | 10.0 | 0.00 | 0.00 | 0.00 | 58 | 1017.9 |
| 20260507053530 | 62 | 133 | 9.0 | 11.0 | 0.00 | 0.00 | 0.00 | 59 | 1017.8 |
| 20260507053029 | 62 | 122 | 7.0 | 10.0 | 0.00 | 0.00 | 0.00 | 59 | 1017.7 |
| 20260507052526 | 62 | 119 | 5.0 | 11.0 | 0.00 | 0.00 | 0.00 | 58 | 1017.7 |
| 20260507052022 | 63 | 122 | 9.0 | 10.0 | 0.00 | 0.00 | 0.00 | 57 | 1017.6 |
| 20260507051520 | 63 | 122 | 8.0 | 12.0 | 0.00 | 0.00 | 0.00 | 56 | 1017.6 |
| 20260507051017 | 63 | 125 | 5.0 | 11.0 | 0.00 | 0.00 | 0.00 | 56 | 1017.2 |
| 20260507050513 | 63 | 112 | 7.0 | 10.0 | 0.00 | 0.00 | 0.00 | 55 | 1017.6 |
| 20260507050010 | 63 | 106 | 8.0 | 11.0 | 0.00 | 0.00 | 0.00 | 54 | 1017.6 |
| 20260507045506 | 63 | 95 | 7.0 | 10.0 | 0.00 | 0.00 | 0.00 | 54 | 1017.7 |
| 20260507045004 | 64 | 102 | 6.0 | 9.0 | 0.00 | 0.00 | 0.00 | 52 | 1017.7 |
| 20260507044500 | 64 | 99 | 6.0 | 9.0 | 0.00 | 0.00 | 0.00 | 52 | 1017.6 |
| 20260507043956 | 64 | 96 | 4.0 | 6.0 | 0.00 | 0.00 | 0.00 | 52 | 1017.6 |
| 20260507043453 | 64 | 93 | 4.0 | 8.0 | 0.00 | 0.00 | 0.00 | 51 | 1017.4 |
| 20260507042949 | 64 | 87 | 4.0 | 9.0 | 0.00 | 0.00 | 0.00 | 51 | 1017.1 |
| 20260507042446 | 65 | 98 | 6.0 | 7.0 | 0.00 | 0.00 | 0.00 | 50 | 1017.4 |
| 20260507041942 | 65 | 106 | 4.0 | 9.0 | 0.00 | 0.00 | 0.00 | 50 | 1017.1 |
| 20260507041439 | 65 | 132 | 8.0 | 10.0 | 0.00 | 0.00 | 0.00 | 49 | 1016.9 |
| 20260507040936 | 65 | 118 | 7.0 | 10.0 | 0.00 | 0.00 | 0.00 | 48 | 1016.9 |
| 20260507040432 | 66 | 114 | 7.0 | 8.0 | 0.00 | 0.00 | 0.00 | 48 | 1016.7 |
| 20260507035928 | 66 | 108 | 6.0 | 11.0 | 0.00 | 0.00 | 0.00 | 47 | 1016.9 |
| 20260507035425 | 66 | 121 | 9.0 | 11.0 | 0.00 | 0.00 | 0.00 | 47 | 1016.6 |
| 20260507034921 | 66 | 127 | 9.0 | 13.0 | 0.00 | 0.00 | 0.00 | 46 | 1016.5 |
| 20260507034418 | 66 | 130 | 7.0 | 11.0 | 0.00 | 0.00 | 0.00 | 46 | 1016.5 |
| 20260507033916 | 67 | 111 | 6.0 | 10.0 | 0.00 | 0.00 | 0.00 | 46 | 1016.3 |
| 20260507033414 | 67 | 112 | 8.0 | 10.0 | 0.00 | 0.00 | 0.00 | 46 | 1016.2 |
| 20260507032911 | 67 | 114 | 5.0 | 11.0 | 0.00 | 0.00 | 0.00 | 46 | 1016.3 |
| 20260507032408 | 67 | 119 | 8.0 | 11.0 | 0.00 | 0.00 | 0.00 | 45 | 1016.4 |
| 20260507031903 | 67 | 116 | 7.0 | 15.0 | 0.00 | 0.00 | 0.00 | 45 | 1016.1 |
| 20260507031400 | 67 | 125 | 8.0 | 11.0 | 0.00 | 0.00 | 0.00 | 45 | 1015.8 |
| 20260507030857 | 68 | 124 | 7.0 | 13.0 | 0.00 | 0.00 | 0.00 | 44 | 1015.8 |
| 20260507030354 | 68 | 124 | 11.0 | 15.0 | 0.00 | 0.00 | 0.00 | 44 | 1015.8 |
| 20260507025851 | 68 | 125 | 10.0 | 13.0 | 0.00 | 0.00 | 0.00 | 43 | 1015.7 |
| 20260507025349 | 68 | 124 | 9.0 | 10.0 | 0.00 | 0.00 | 0.00 | 43 | 1015.5 |
| 20260507024846 | 69 | 128 | 9.0 | 14.0 | 0.00 | 0.00 | 0.00 | 43 | 1015.3 |
| 20260507024343 | 69 | 135 | 11.0 | 15.0 | 0.00 | 0.00 | 0.00 | 42 | 1015.2 |
| 20260507023839 | 69 | 122 | 6.0 | 11.0 | 0.00 | 0.00 | 0.00 | 42 | 1015.3 |
| 20260507023336 | 69 | 112 | 6.0 | 11.0 | 0.00 | 0.00 | 0.00 | 42 | 1015.2 |
| 20260507022833 | 69 | 119 | 8.0 | 11.0 | 0.00 | 0.00 | 0.00 | 41 | 1015.1 |
| 20260507022330 | 70 | 116 | 6.0 | 13.0 | 0.00 | 0.00 | 0.00 | 41 | 1014.8 |
| 20260507021826 | 70 | 117 | 12.0 | 13.0 | 0.00 | 0.00 | 0.00 | 40 | 1014.8 |
| 20260507021321 | 70 | 119 | 10.0 | 17.0 | 0.00 | 0.00 | 0.00 | 40 | 1014.8 |
| 20260507020819 | 71 | 114 | 8.0 | 15.0 | 0.00 | 0.00 | 0.00 | 40 | 1014.6 |
| 20260507020316 | 71 | 100 | 4.0 | 11.0 | 0.00 | 0.00 | 0.00 | 39 | 1014.9 |
| 20260507015813 | 72 | 99 | 9.0 | 13.0 | 0.00 | 0.00 | 0.00 | 38 | 1014.5 |
| 20260507015311 | 72 | 109 | 7.0 | 14.0 | 0.00 | 0.00 | 0.00 | 37 | 1014.5 |
| 20260507014807 | 73 | 107 | 12.0 | 18.0 | 0.00 | 0.00 | 0.00 | 36 | 1014.3 |
| 20260507014304 | 74 | 127 | 5.0 | 9.0 | 0.00 | 0.00 | 0.00 | 35 | 1014.2 |
| 20260507013800 | 74 | 128 | 5.0 | 9.0 | 0.00 | 0.00 | 0.00 | 34 | 1014.2 |
| 20260507013258 | 74 | 116 | 7.0 | 9.0 | 0.00 | 0.00 | 0.00 | 34 | 1014.1 |
| 20260507012755 | 75 | 126 | 7.0 | 11.0 | 0.00 | 0.00 | 0.00 | 33 | 1014.1 |
| 20260507012250 | 75 | 125 | 10.0 | 12.0 | 0.00 | 0.00 | 0.00 | 33 | 1014.1 |
| 20260507011748 | 75 | 118 | 9.0 | 12.0 | 0.00 | 0.00 | 0.00 | 33 | 1014.0 |
| 20260507011244 | 76 | 123 | 6.0 | 10.0 | 0.00 | 0.00 | 0.00 | 32 | 1013.9 |
| 20260507010744 | 76 | 123 | 6.0 | 11.0 | 0.00 | 0.00 | 0.00 | 32 | 1013.9 |
| 20260507010240 | 76 | 117 | 6.0 | 11.0 | 0.00 | 0.00 | 0.00 | 31 | 1014.1 |
| 20260507005738 | 77 | 136 | 7.0 | 12.0 | 0.00 | 0.00 | 0.00 | 31 | 1013.8 |
| 20260507005234 | 77 | 129 | 9.0 | 12.0 | 0.00 | 0.00 | 0.00 | 31 | 1013.8 |
| 20260507004730 | 77 | 123 | 7.0 | 15.0 | 0.00 | 0.00 | 0.00 | 31 | 1013.8 |
| 20260507004229 | 77 | 133 | 10.0 | 14.0 | 0.00 | 0.00 | 0.00 | 30 | 1013.7 |
| 20260507003724 | 78 | 133 | 8.0 | 12.0 | 0.00 | 0.00 | 0.00 | 30 | 1013.7 |
| 20260507003220 | 78 | 151 | 6.0 | 14.0 | 0.00 | 0.00 | 0.00 | 30 | 1013.6 |
| 20260507002716 | 78 | 117 | 8.0 | 10.0 | 0.00 | 0.00 | 0.00 | 28 | 1013.6 |
| 20260507002212 | 79 | 120 | 6.0 | 9.0 | 0.00 | 0.00 | 0.00 | 28 | 1013.6 |
| 20260507001709 | 79 | 150 | 5.0 | 9.0 | 0.00 | 0.00 | 0.00 | 27 | 1013.5 |
| 20260507001207 | 79 | 127 | 7.0 | 10.0 | 0.00 | 0.00 | 0.00 | 27 | 1013.5 |
| 20260507000703 | 78 | 128 | 6.0 | 11.0 | 0.00 | 0.00 | 0.00 | 27 | 1013.5 |
| 20260507000158 | 79 | 147 | 8.0 | 11.0 | 0.00 | 0.00 | 0.00 | 27 | 1013.5 |
| 20260506235656 | 79 | 165 | 4.0 | 7.0 | 0.00 | 0.00 | 0.00 | 27 | 1013.5 |
| 20260506235151 | 79 | 131 | 7.0 | 11.0 | 0.00 | 0.00 | 0.00 | 27 | 1013.5 |
| 20260506234648 | 79 | 125 | 6.0 | 9.0 | 0.00 | 0.00 | 0.00 | 28 | 1013.5 |
| 20260506234145 | 79 | 113 | 4.0 | 11.0 | 0.00 | 0.00 | 0.00 | 28 | 1013.6 |
| 20260506233642 | 79 | 136 | 7.0 | 10.0 | 0.00 | 0.00 | 0.00 | 27 | 1013.5 |
| 20260506233139 | 79 | 192 | 6.0 | 11.0 | 0.00 | 0.00 | 0.00 | 27 | 1013.6 |
| 20260506232635 | 80 | 179 | 2.0 | 6.0 | 0.00 | 0.00 | 0.00 | 25 | 1013.6 |
| 20260506232131 | 81 | 282 | 0.0 | 2.0 | 0.00 | 0.00 | 0.00 | 25 | 1013.5 |
| 20260506231628 | 80 | 67 | 1.0 | 5.0 | 0.00 | 0.00 | 0.00 | 26 | 1013.5 |
| 20260506231127 | 80 | 175 | 4.0 | 7.0 | 0.00 | 0.00 | 0.00 | 26 | 1013.6 |
| 20260506230623 | 80 | 150 | 4.0 | 4.0 | 0.00 | 0.00 | 0.00 | 26 | 1013.6 |
| 20260506230120 | 79 | 194 | 3.0 | 6.0 | 0.00 | 0.00 | 0.00 | 27 | 1013.5 |
| 20260506225617 | 79 | 160 | 3.0 | 7.0 | 0.00 | 0.00 | 0.00 | 28 | 1013.6 |
| 20260506225113 | 80 | 207 | 10.0 | 11.0 | 0.00 | 0.00 | 0.00 | 26 | 1013.6 |
| 20260506224610 | 79 | 180 | 2.0 | 5.0 | 0.00 | 0.00 | 0.00 | 28 | 1013.7 |
| 20260506224106 | 78 | 107 | 1.0 | 7.0 | 0.00 | 0.00 | 0.00 | 28 | 1013.6 |
| 20260506223602 | 78 | 150 | 2.0 | 6.0 | 0.00 | 0.00 | 0.00 | 29 | 1013.6 |
| 20260506223059 | 78 | 216 | 2.0 | 5.0 | 0.00 | 0.00 | 0.00 | 28 | 1013.7 |
| 20260506222556 | 78 | 180 | 3.0 | 8.0 | 0.00 | 0.00 | 0.00 | 29 | 1013.7 |
| 20260506222052 | 78 | 188 | 2.0 | 5.0 | 0.00 | 0.00 | 0.00 | 29 | 1013.8 |
| 20260506221550 | 78 | 136 | 6.0 | 7.0 | 0.00 | 0.00 | 0.00 | 28 | 1013.9 |
| 20260506221048 | 78 | 129 | 3.0 | 3.0 | 0.00 | 0.00 | 0.00 | 30 | 1013.8 |
| 20260506220543 | 78 | 65 | 3.0 | 5.0 | 0.00 | 0.00 | 0.00 | 29 | 1014.0 |
| 20260506220039 | 77 | 66 | 3.0 | 5.0 | 0.00 | 0.00 | 0.00 | 30 | 1014.1 |
| 20260506215536 | 78 | 121 | 3.0 | 4.0 | 0.00 | 0.00 | 0.00 | 29 | 1013.9 |
| 20260506215032 | 78 | 114 | 3.0 | 6.0 | 0.00 | 0.00 | 0.00 | 29 | 1014.0 |
| 20260506214529 | 78 | 175 | 2.0 | 6.0 | 0.00 | 0.00 | 0.00 | 30 | 1014.1 |
| 20260506214026 | 77 | 183 | 4.0 | 5.0 | 0.00 | 0.00 | 0.00 | 30 | 1014.2 |
| 20260506213524 | 76 | 125 | 2.0 | 4.0 | 0.00 | 0.00 | 0.00 | 30 | 1014.0 |
| 20260506213021 | 77 | 108 | 6.0 | 7.0 | 0.00 | 0.00 | 0.00 | 30 | 1014.1 |
| 20260506212518 | 76 | 188 | 2.0 | 5.0 | 0.00 | 0.00 | 0.00 | 31 | 1014.3 |
| 20260506212013 | 77 | 179 | 4.0 | 6.0 | 0.00 | 0.00 | 0.00 | 30 | 1014.2 |
| 20260506211509 | 76 | 63 | 0.0 | 4.0 | 0.00 | 0.00 | 0.00 | 31 | 1014.3 |
| 20260506211006 | 78 | 42 | 6.0 | 6.0 | 0.00 | 0.00 | 0.00 | 31 | 1014.6 |
| 20260506210502 | 76 | 24 | 5.0 | 5.0 | 0.00 | 0.00 | 0.00 | 33 | 1014.5 |
| 20260506205959 | 76 | 98 | 4.0 | 7.0 | 0.00 | 0.00 | 0.00 | 33 | 1014.5 |
| 20260506205456 | 76 | 142 | 2.0 | 3.0 | 0.00 | 0.00 | 0.00 | 34 | 1014.5 |
| 20260506204952 | 75 | 190 | 2.0 | 4.0 | 0.00 | 0.00 | 0.00 | 34 | 1014.9 |
| 20260506204450 | 74 | 27 | 1.0 | 3.0 | 0.00 | 0.00 | 0.00 | 35 | 1015.0 |
| 20260506203947 | 74 | 77 | 3.0 | 5.0 | 0.00 | 0.00 | 0.00 | 36 | 1015.1 |
| 20260506203444 | 74 | 118 | 4.0 | 4.0 | 0.00 | 0.00 | 0.00 | 37 | 1014.9 |
| 20260506202941 | 74 | 185 | 3.0 | 4.0 | 0.00 | 0.00 | 0.00 | 37 | 1015.1 |
| 20260506202438 | 73 | 169 | 4.0 | 9.0 | 0.00 | 0.00 | 0.00 | 38 | 1015.0 |
| 20260506201934 | 73 | 224 | 0.0 | 3.0 | 0.00 | 0.00 | 0.00 | 39 | 1015.2 |
| 20260506201432 | 72 | 85 | 3.0 | 12.0 | 0.00 | 0.00 | 0.00 | 40 | 1015.2 |
| 20260506200928 | 73 | 84 | 3.0 | 5.0 | 0.00 | 0.00 | 0.00 | 38 | 1015.2 |
| 20260506200425 | 72 | 99 | 7.0 | 9.0 | 0.00 | 0.00 | 0.00 | 40 | 1015.4 |
| 20260506195921 | 71 | 174 | 3.0 | 4.0 | 0.00 | 0.00 | 0.00 | 42 | 1015.3 |
| 20260506195418 | 71 | 124 | 5.0 | 8.0 | 0.00 | 0.00 | 0.00 | 42 | 1015.3 |
| 20260506194915 | 71 | 115 | 7.0 | 11.0 | 0.00 | 0.00 | 0.00 | 42 | 1015.4 |
| 20260506194412 | 70 | 95 | 5.0 | 8.0 | 0.00 | 0.00 | 0.00 | 43 | 1015.6 |
| 20260506193909 | 70 | 130 | 9.0 | 12.0 | 0.00 | 0.00 | 0.00 | 43 | 1015.5 |
| 20260506193406 | 70 | 72 | 4.0 | 10.0 | 0.00 | 0.00 | 0.00 | 44 | 1015.8 |
| 20260506192902 | 70 | 93 | 3.0 | 9.0 | 0.00 | 0.00 | 0.00 | 45 | 1015.6 |
| 20260506192359 | 69 | 80 | 8.0 | 12.0 | 0.00 | 0.00 | 0.00 | 45 | 1015.7 |
| 20260506191856 | 69 | 62 | 4.0 | 9.0 | 0.00 | 0.00 | 0.00 | 44 | 1015.8 |
| 20260506191352 | 69 | 111 | 5.0 | 10.0 | 0.00 | 0.00 | 0.00 | 45 | 1016.1 |
| 20260506190849 | 69 | 97 | 5.0 | 10.0 | 0.00 | 0.00 | 0.00 | 45 | 1016.1 |
| 20260506190346 | 70 | 39 | 3.0 | 6.0 | 0.00 | 0.00 | 0.00 | 45 | 1015.9 |
| 20260506185843 | 68 | 112 | 3.0 | 8.0 | 0.00 | 0.00 | 0.00 | 47 | 1016.1 |
| 20260506185340 | 68 | 113 | 7.0 | 14.0 | 0.00 | 0.00 | 0.00 | 47 | 1016.1 |
| 20260506184837 | 67 | 98 | 10.0 | 10.0 | 0.00 | 0.00 | 0.00 | 49 | 1016.2 |
| 20260506184334 | 67 | 84 | 5.0 | 9.0 | 0.00 | 0.00 | 0.00 | 48 | 1016.3 |
| 20260506183831 | 66 | 131 | 6.0 | 12.0 | 0.00 | 0.00 | 0.00 | 49 | 1016.3 |
| 20260506183326 | 66 | 89 | 6.0 | 12.0 | 0.00 | 0.00 | 0.00 | 50 | 1016.5 |
| 20260506182824 | 66 | 109 | 9.0 | 9.0 | 0.00 | 0.00 | 0.00 | 51 | 1016.4 |
| 20260506182321 | 65 | 99 | 1.0 | 5.0 | 0.00 | 0.00 | 0.00 | 51 | 1016.5 |
| 20260506181819 | 65 | 108 | 6.0 | 10.0 | 0.00 | 0.00 | 0.00 | 52 | 1016.5 |
| 20260506181316 | 64 | 101 | 8.0 | 10.0 | 0.00 | 0.00 | 0.00 | 52 | 1016.5 |
| 20260506180813 | 64 | 70 | 5.0 | 10.0 | 0.00 | 0.00 | 0.00 | 52 | 1016.4 |
| 20260506180309 | 64 | 113 | 8.0 | 10.0 | 0.00 | 0.00 | 0.00 | 53 | 1016.7 |
| 20260506175806 | 64 | 58 | 5.0 | 7.0 | 0.00 | 0.00 | 0.00 | 54 | 1016.8 |
| 20260506175306 | 64 | 80 | 8.0 | 11.0 | 0.00 | 0.00 | 0.00 | 54 | 1016.7 |
| 20260506174800 | 63 | 54 | 6.0 | 12.0 | 0.00 | 0.00 | 0.00 | 55 | 1016.8 |
| 20260506174257 | 63 | 104 | 4.0 | 11.0 | 0.00 | 0.00 | 0.00 | 54 | 1017.1 |
| 20260506173755 | 62 | 119 | 10.0 | 12.0 | 0.00 | 0.00 | 0.00 | 56 | 1017.1 |
| 20260506173251 | 62 | 91 | 7.0 | 10.0 | 0.00 | 0.00 | 0.00 | 57 | 1017.0 |
| 20260506172748 | 61 | 76 | 8.0 | 12.0 | 0.00 | 0.00 | 0.00 | 58 | 1017.0 |
| 20260506172245 | 61 | 58 | 8.0 | 12.0 | 0.00 | 0.00 | 0.00 | 57 | 1017.4 |
| 20260506171742 | 62 | 86 | 8.0 | 13.0 | 0.00 | 0.00 | 0.00 | 56 | 1017.1 |
| 20260506171239 | 62 | 81 | 9.0 | 10.0 | 0.00 | 0.00 | 0.00 | 57 | 1017.0 |
| 20260506170737 | 60 | 80 | 7.0 | 12.0 | 0.00 | 0.00 | 0.00 | 60 | 1016.9 |
| 20260506170233 | 60 | 66 | 13.0 | 14.0 | 0.00 | 0.00 | 0.00 | 59 | 1017.2 |
| 20260506165732 | 60 | 78 | 7.0 | 13.0 | 0.00 | 0.00 | 0.00 | 60 | 1017.2 |
| 20260506165229 | 59 | 93 | 14.0 | 15.0 | 0.00 | 0.00 | 0.00 | 61 | 1016.9 |
| 20260506164726 | 59 | 65 | 12.0 | 15.0 | 0.00 | 0.00 | 0.00 | 61 | 1016.9 |
| 20260506164223 | 59 | 32 | 11.0 | 15.0 | 0.00 | 0.00 | 0.00 | 62 | 1017.0 |
| 20260506163719 | 59 | 55 | 9.0 | 17.0 | 0.00 | 0.00 | 0.00 | 62 | 1017.0 |
| 20260506163214 | 58 | 83 | 4.0 | 17.0 | 0.00 | 0.00 | 0.00 | 63 | 1017.2 |
| 20260506162711 | 58 | 102 | 6.0 | 11.0 | 0.00 | 0.00 | 0.00 | 63 | 1017.1 |
| 20260506162208 | 58 | 100 | 12.0 | 15.0 | 0.00 | 0.00 | 0.00 | 63 | 1016.8 |
| 20260506161705 | 57 | 76 | 11.0 | 14.0 | 0.00 | 0.00 | 0.00 | 63 | 1016.8 |
| 20260506161202 | 57 | 70 | 8.0 | 15.0 | 0.00 | 0.00 | 0.00 | 65 | 1016.9 |
| 20260506160700 | 57 | 66 | 11.0 | 18.0 | 0.00 | 0.00 | 0.00 | 65 | 1017.1 |
| 20260506160156 | 57 | 91 | 12.0 | 16.0 | 0.00 | 0.00 | 0.00 | 65 | 1016.8 |
| 20260506155655 | 57 | 91 | 12.0 | 16.0 | 0.00 | 0.00 | 0.00 | 64 | 1017.0 |
| 20260506155151 | 56 | 52 | 15.0 | 20.0 | 0.00 | 0.00 | 0.00 | 66 | 1016.9 |
| 20260506153254 | 56 | 87 | 7.0 | 19.0 | 0.00 | 0.00 | 0.00 | 66 | 1016.9 |
| 20260506152750 | 55 | 95 | 8.0 | 15.0 | 0.00 | 0.00 | 0.00 | 67 | 1016.8 |
| 20260506152248 | 55 | 75 | 20.0 | 20.0 | 0.00 | 0.00 | 0.00 | 66 | 1017.0 |
| 20260506151747 | 55 | 86 | 11.0 | 18.0 | 0.00 | 0.00 | 0.00 | 68 | 1016.8 |
| 20260506151243 | 54 | 85 | 17.0 | 19.0 | 0.00 | 0.00 | 0.00 | 68 | 1016.8 |
| 20260506150739 | 54 | 94 | 14.0 | 20.0 | 0.00 | 0.00 | 0.00 | 68 | 1016.6 |
| 20260506150237 | 54 | 69 | 16.0 | 19.0 | 0.00 | 0.00 | 0.00 | 68 | 1016.7 |
| 20260506145734 | 54 | 70 | 17.0 | 20.0 | 0.00 | 0.00 | 0.00 | 67 | 1016.6 |
| 20260506145230 | 54 | 80 | 12.0 | 19.0 | 0.00 | 0.00 | 0.00 | 68 | 1016.5 |
| 20260506144727 | 54 | 61 | 13.0 | 18.0 | 0.00 | 0.00 | 0.00 | 68 | 1016.6 |
| 20260506144224 | 53 | 65 | 11.0 | 18.0 | 0.00 | 0.00 | 0.00 | 68 | 1016.4 |
| 20260506143722 | 54 | 69 | 11.0 | 19.0 | 0.00 | 0.00 | 0.00 | 68 | 1016.1 |
| 20260506143219 | 53 | 54 | 13.0 | 23.0 | 0.00 | 0.00 | 0.00 | 68 | 1016.4 |
| 20260506142718 | 54 | 69 | 15.0 | 19.0 | 0.00 | 0.00 | 0.00 | 67 | 1016.3 |
| 20260506142215 | 54 | 71 | 12.0 | 17.0 | 0.00 | 0.00 | 0.00 | 68 | 1016.5 |
| 20260506141713 | 54 | 38 | 11.0 | 17.0 | 0.00 | 0.00 | 0.00 | 69 | 1016.1 |
| 20260506141211 | 53 | 69 | 13.0 | 17.0 | 0.00 | 0.00 | 0.00 | 70 | 1016.1 |
| 20260506140709 | 53 | 54 | 17.0 | 22.0 | 0.00 | 0.00 | 0.00 | 70 | 1015.9 |
| 20260506140205 | 54 | 66 | 17.0 | 21.0 | 0.00 | 0.00 | 0.00 | 70 | 1016.2 |
| 20260506135702 | 54 | 67 | 12.0 | 22.0 | 0.00 | 0.00 | 0.00 | 70 | 1016.1 |
| 20260506135159 | 53 | 63 | 17.0 | 20.0 | 0.00 | 0.00 | 0.00 | 71 | 1015.9 |